Chattanooga, TN

8:29 PM EST on December 11, 2017 (GMT -0500)
Lovell

Weather History for KCHA - July, 2012

Change the Weather History Date:

Saturday, July 14, 2012

  Actual Average Record
Temperature  
Mean Temperature 83 °F 80 °F  
Max Temperature 91 °F 90 °F 103 °F (1954)
Min Temperature 75 °F 70 °F 56 °F (1967)
Cooling Degree Days 18 15  
Month to date cooling degree days 264 206  
Year to date cooling degree days 1066 747  
Since 1 June cooling degree days 641 551  
Growing Degree Days 33 (Base 50)    
Moisture  
Dew Point 71 °F    
Average Humidity 67    
Maximum Humidity 87    
Minimum Humidity 47    
Precipitation  
Precipitation T in 0.18 in 4.61 in (1949)
Month to date precipitation 3.35 2.23  
Year to date precipitation 23.72 29.10  
Snow  
Snow 0.00 in - - ()
Month to date snowfall 0.0  
Since 1 June snowfall 0.0  
Snow Depth 0.00 in    
Sea Level Pressure  
Sea Level Pressure 30.12 in    
Wind  
Wind Speed 5 mph (SE)    
Max Wind Speed 14 mph    
Max Gust Speed 18 mph    
Visibility 10 miles    
Events Rain , Thunderstorm    
T = Trace of Precipitation, MM = Missing Value Source: NWS Daily Summary

Daily Weather History Graph

Daily Weather History Graph

Search for Another Location

Airport or City:

Trip Planner

Search our weather history database for the weather conditions in past years. The results will help you decide how hot, cold, wet, or windy it might be!

Date:

Astronomy

Jul. 14, 2012 Rise Set
Actual Time 6:37 AM EDT 8:55 PM EDT
Civil Twilight 6:08 AM EDT 9:24 PM EDT
Nautical Twilight 5:33 AM EDT 9:59 PM EDT
Astronomical Twilight 4:54 AM EDT 10:38 PM EDT
Moon 2:50 AM EDT (7/14) 5:19 PM EDT (7/14)
Length of Visible Light 15h 15m
Length of Day
14h 17m
Waning Crescent, 19% of the Moon is Illuminated
Jul 14
Waning Crescent
Jul 19
New
Jul 26
First Quarter
Aug 1
Full
Aug 9
Last Quarter

Hourly Weather History & Observations

Time (EDT) Temp. Heat Index Dew Point Humidity Pressure Visibility Wind Dir Wind Speed Gust Speed Precip Events Conditions
12:53 AM 75.9 °F - 71.1 °F 85% 30.11 in 10.0 mi Calm Calm - N/A   Mostly Cloudy
1:53 AM 75.9 °F - 71.1 °F 85% 30.11 in 10.0 mi Calm Calm - N/A   Mostly Cloudy
2:53 AM 75.9 °F - 71.1 °F 85% 30.10 in 10.0 mi Calm Calm - N/A   Mostly Cloudy
3:53 AM 75.9 °F - 72.0 °F 87% 30.09 in 10.0 mi Calm Calm - N/A   Overcast
4:53 AM 75.2 °F - 71.6 °F 89% 30.11 in 10.0 mi ESE 3.5 mph - N/A   Overcast
5:53 AM 75.9 °F - 71.1 °F 85% 30.10 in 10.0 mi Calm Calm - N/A   Overcast
6:53 AM 75.9 °F - 72.0 °F 87% 30.12 in 10.0 mi ESE 4.6 mph - N/A   Overcast
7:53 AM 77.0 °F - 72.0 °F 84% 30.14 in 10.0 mi SE 3.5 mph - N/A   Overcast
8:53 AM 78.1 °F - 73.0 °F 84% 30.16 in 9.0 mi SSE 5.8 mph - 0.00 in Rain Light Rain
9:53 AM 80.1 °F 84.2 °F 73.0 °F 79% 30.16 in 10.0 mi SSE 4.6 mph - 0.00 in   Overcast
10:53 AM 82.9 °F 88.0 °F 72.0 °F 69% 30.15 in 10.0 mi ESE 9.2 mph - N/A   Mostly Cloudy
11:07 AM 84.2 °F 89.6 °F 71.6 °F 66% 30.17 in 10.0 mi Variable 6.9 mph - N/A   Mostly Cloudy
11:53 AM 84.9 °F 90.7 °F 72.0 °F 65% 30.14 in 10.0 mi South 6.9 mph - N/A   Mostly Cloudy
12:17 PM 80.6 °F 85.4 °F 73.4 °F 79% 30.17 in 5.0 mi SW 6.9 mph - 0.00 in Rain Rain
12:33 PM 80.6 °F 85.4 °F 73.4 °F 79% 30.16 in 10.0 mi WNW 5.8 mph - 0.00 in Thunderstorm Thunderstorm
12:51 PM 80.6 °F 85.4 °F 73.4 °F 79% 30.16 in 10.0 mi Calm Calm - 0.00 in   Mostly Cloudy
12:53 PM 82.0 °F 87.9 °F 73.9 °F 76% 30.13 in 10.0 mi Calm Calm - 0.00 in   Mostly Cloudy
1:53 PM 84.0 °F 89.0 °F 71.1 °F 65% 30.12 in 10.0 mi SSE 9.2 mph 17.3 mph N/A Thunderstorm Thunderstorm
2:19 PM 86.0 °F 90.4 °F 69.8 °F 58% 30.12 in 10.0 mi SSE 6.9 mph - N/A   Mostly Cloudy
2:53 PM 87.1 °F 91.3 °F 69.1 °F 55% 30.08 in 10.0 mi SSE 8.1 mph 18.4 mph N/A   Mostly Cloudy
3:53 PM 86.0 °F 91.5 °F 71.1 °F 61% 30.08 in 10.0 mi SE 5.8 mph - N/A   Mostly Cloudy
4:53 PM 89.1 °F 93.7 °F 69.1 °F 52% 30.06 in 10.0 mi SE 9.2 mph 16.1 mph N/A   Mostly Cloudy
5:53 PM 91.0 °F 95.2 °F 68.0 °F 47% 30.06 in 10.0 mi Variable 6.9 mph - N/A   Mostly Cloudy
6:53 PM 89.1 °F 92.1 °F 66.9 °F 48% 30.06 in 10.0 mi SE 6.9 mph - N/A   Mostly Cloudy
7:53 PM 86.0 °F 89.4 °F 68.0 °F 55% 30.11 in 10.0 mi ESE 5.8 mph - N/A   Mostly Cloudy
8:53 PM 84.0 °F 87.8 °F 69.1 °F 61% 30.09 in 10.0 mi ESE 3.5 mph - N/A   Mostly Cloudy
9:53 PM 79.0 °F - 72.0 °F 79% 30.12 in 10.0 mi NNW 4.6 mph - N/A   Mostly Cloudy
10:53 PM 78.1 °F - 73.0 °F 84% 30.13 in 10.0 mi NNW 4.6 mph - N/A   Mostly Cloudy
11:53 PM 78.1 °F - 71.1 °F 79% 30.13 in 10.0 mi NE 3.5 mph - N/A   Mostly Cloudy